Weather History for KTEB - August, 2014

Change the Weather History Date:

Tuesday, August 5, 2014

  Actual Average Record
Temperature  
Mean Temperature 83 °F -  
Max Temperature 96 °F 83 °F 98 °F (2005)
Min Temperature 70 °F 64 °F 59 °F (2013)
Cooling Degree Days 18    
Growing Degree Days 33 (Base 50)    
Moisture  
Dew Point 62 °F    
Average Humidity 55    
Maximum Humidity 78    
Minimum Humidity 27    
Precipitation  
Precipitation 0.00 in - - ()
Sea Level Pressure  
Sea Level Pressure 29.98 in    
Wind  
Wind Speed 2 mph (SSW)    
Max Wind Speed 12 mph    
Max Gust Speed 18 mph    
Visibility 10 miles    
Events Rain    
Averages and records for this station are not official NWS values.
T = Trace of Precipitation, MM = Missing Value Source: NWS Daily Summary

Daily Weather History Graph

Daily Weather History Graph

Search for Another Location

Airport or City:

Trip Planner

Search our weather history database for the weather conditions in past years. The results will help you decide how hot, cold, wet, or windy it might be!

Date:

Astronomy

Aug. 05, 2014 Rise Set
Actual Time 5:56 AM EDT 8:07 PM EDT
Civil Twilight 5:25 AM EDT 8:37 PM EDT
Nautical Twilight 4:48 AM EDT 9:14 PM EDT
Astronomical Twilight 4:07 AM EDT 9:55 PM EDT
Moon 3:19 PM EDT (8/5) 12:42 AM EDT (8/5)
Length of Visible Light 15h 11m
Length of Day
14h 11m
Waxing Gibbous, 67% of the Moon is Illuminated
Aug 5
Waxing Gibbous
Aug 10
Full
Aug 17
Last Quarter
Aug 25
New
Sep 2
First Quarter

Hourly Weather History & Observations

Time (EDT) Temp. Heat Index Dew Point Humidity Pressure Visibility Wind Dir Wind Speed Gust Speed Precip Events Conditions
12:51 AM 75.9 °F - 63.0 °F 64% 30.03 in 10.0 mi Calm Calm - N/A   Clear
1:51 AM 73.4 °F - 62.6 °F 69% 30.03 in 10.0 mi Calm Calm - N/A   Clear
2:51 AM 73.0 °F - 63.0 °F 71% 30.02 in 10.0 mi Calm Calm - N/A   Clear
3:51 AM 70.0 °F - 63.0 °F 78% 30.02 in 10.0 mi Calm Calm - N/A   Clear
4:51 AM 71.6 °F - 64.4 °F 78% 30.02 in 10.0 mi NW 3.5 mph - N/A   Clear
5:51 AM 71.1 °F - 63.0 °F 75% 30.02 in 10.0 mi Calm Calm - N/A   Clear
6:51 AM 72.0 °F - 63.0 °F 73% 30.03 in 10.0 mi Calm Calm - N/A   Clear
7:11 AM 73.4 °F - 64.4 °F 73% 30.03 in 10.0 mi Calm Calm - N/A   Partly Cloudy
7:51 AM 75.9 °F - 63.0 °F 64% 30.04 in 10.0 mi NNW 3.5 mph - N/A   Clear
7:59 AM 75.2 °F - 64.4 °F 69% 30.03 in 10.0 mi Calm Calm - N/A   Partly Cloudy
8:51 AM 80.1 °F 81.5 °F 63.0 °F 56% 30.04 in 10.0 mi Calm Calm - N/A   Clear
9:51 AM 84.0 °F 84.9 °F 63.0 °F 49% 30.03 in 10.0 mi Calm Calm - N/A   Clear
10:51 AM 86.0 °F 86.1 °F 60.8 °F 43% 30.02 in 10.0 mi Calm Calm - N/A   Clear
11:51 AM 87.1 °F 86.5 °F 59.0 °F 39% 30.01 in 10.0 mi Variable 3.5 mph - N/A   Scattered Clouds
12:51 PM 89.1 °F 87.7 °F 57.0 °F 34% 29.99 in 10.0 mi West 4.6 mph - N/A   Partly Cloudy
1:51 PM 90.0 °F 88.6 °F 57.0 °F 33% 29.96 in 10.0 mi Calm Calm - N/A   Scattered Clouds
2:51 PM 91.0 °F 89.7 °F 57.0 °F 32% 29.94 in 10.0 mi Calm Calm - N/A   Partly Cloudy
3:51 PM 96.1 °F 94.8 °F 57.0 °F 27% 29.91 in 10.0 mi SSE 9.2 mph 18.4 mph N/A   Partly Cloudy
4:51 PM 89.1 °F 87.3 °F 55.9 °F 32% 29.89 in 10.0 mi Calm Calm - N/A   Partly Cloudy
5:51 PM 88.0 °F 87.9 °F 61.0 °F 40% 29.89 in 10.0 mi South 10.4 mph - N/A   Scattered Clouds
6:51 PM 84.0 °F 84.5 °F 62.1 °F 47% 29.90 in 10.0 mi South 6.9 mph - N/A   Partly Cloudy
7:51 PM 82.9 °F 83.3 °F 61.0 °F 47% 29.90 in 10.0 mi South 5.8 mph - 0.00 in Rain Light Rain
8:51 PM 82.0 °F 83.4 °F 64.0 °F 54% 29.90 in 10.0 mi SSE 9.2 mph - 0.00 in Rain Light Rain
9:51 PM 81.0 °F 82.7 °F 64.9 °F 58% 29.90 in 10.0 mi South 6.9 mph - 0.00 in   Clear
10:51 PM 80.1 °F 81.7 °F 64.0 °F 58% 29.90 in 10.0 mi North 8.1 mph - N/A   Partly Cloudy
11:51 PM 77.0 °F - 62.1 °F 60% 29.91 in 10.0 mi NNE 11.5 mph - N/A   Clear